When you browse on this site, cookies collect data to enhance your experience and personalize the content and advertising you see.
Visit our Privacy Policy to learn more. By continuing to use the site, you agree to this use of cookies and data.
  • In Latvia
  • List of Countries
  • For 7 days
  • Water Temperature
  • Satellite Maps
  • Weather Map
  • Weather Widgets
  • user-avatar
    Login

    Hourly Weather Prutenka

    Today, 22 February, Friday

    Time Temperature Precipitation Wind Pressure Humidity
    00:00 -14°C° 0.1 mm 7 mps 746 mmHg 80%
    01:00 -14°C° 0.1 mm 7 mps 746 mmHg 80%
    02:00 -14°C° 0 mm 7 mps 746 mmHg 81%
    03:00 -14°C° 0.2 mm 7 mps 747 mmHg 81%
    04:00 -14°C° 0.2 mm 7 mps 747 mmHg 81%
    05:00 -14°C° 0.2 mm 7 mps 748 mmHg 81%
    06:00 -14°C° 0.1 mm 7 mps 749 mmHg 79%
    07:00 -14°C° 0.1 mm 7 mps 749 mmHg 77%
    08:00 -14°C° 0 mm 7 mps 750 mmHg 75%
    09:00 -15°C° 0 mm 8 mps 751 mmHg 73%
    10:00 -13°C° 0 mm 8 mps 752 mmHg 71%
    11:00 -13°C° 0 mm 8 mps 753 mmHg 70%
    12:00 -12°C° 0 mm 8 mps 753 mmHg 69%
    13:00 -12°C° 0 mm 7 mps 754 mmHg 69%
    14:00 -11°C° 0 mm 7 mps 755 mmHg 69%
    15:00 -11°C° 0 mm 7 mps 756 mmHg 71%
    16:00 -11°C° 0 mm 6 mps 757 mmHg 74%
    17:00 -11°C° 0 mm 5 mps 757 mmHg 76%
    18:00 -11°C° 0 mm 5 mps 758 mmHg 79%
    19:00 -12°C° 0 mm 5 mps 759 mmHg 81%
    20:00 -12°C° 0 mm 5 mps 759 mmHg 84%
    21:00 -12°C° 0 mm 4 mps 760 mmHg 86%
    22:00 -14°C° 0 mm 4 mps 760 mmHg 88%
    23:00 -14°C° 0 mm 4 mps 761 mmHg 90%

    Tomorrow, 23 February, Saturday

    Time Temperature Precipitation Wind Pressure Humidity
    00:00 -14°C° 0 mm 3 mps 761 mmHg 90%
    01:00 -15°C° 0 mm 3 mps 762 mmHg 90%
    02:00 -15°C° 0 mm 3 mps 762 mmHg 91%
    03:00 -15°C° 0 mm 3 mps 762 mmHg 89%
    04:00 -16°C° 0 mm 3 mps 762 mmHg 88%
    05:00 -15°C° 0 mm 2 mps 762 mmHg 86%
    06:00 -15°C° 0 mm 3 mps 762 mmHg 84%
    07:00 -14°C° 0 mm 3 mps 762 mmHg 82%
    08:00 -13°C° 0 mm 3 mps 761 mmHg 79%
    09:00 -12°C° 0 mm 3 mps 761 mmHg 74%
    10:00 -9°C° 0 mm 3 mps 760 mmHg 70%
    11:00 -9°C° 0 mm 4 mps 760 mmHg 65%
    12:00 -9°C° 0.2 mm 4 mps 759 mmHg 73%
    13:00 -10°C° 0.2 mm 5 mps 758 mmHg 80%
    14:00 -10°C° 0.2 mm 5 mps 757 mmHg 87%
    15:00 -10°C° 0.8 mm 5 mps 756 mmHg 89%
    16:00 -8°C° 0.8 mm 5 mps 755 mmHg 90%
    17:00 -8°C° 0.8 mm 5 mps 754 mmHg 92%
    18:00 -7°C° 0.6 mm 5 mps 754 mmHg 91%
    19:00 -7°C° 0.6 mm 4 mps 753 mmHg 91%
    20:00 -5°C° 0.6 mm 4 mps 753 mmHg 90%
    21:00 -4°C° 0.4 mm 4 mps 752 mmHg 90%
    22:00 -3°C° 0.4 mm 4 mps 752 mmHg 90%
    23:00 -1°C° 0.4 mm 4 mps 752 mmHg 90%

    Day after tomorrow, 24 February, Sunday

    Time Temperature Precipitation Wind Pressure Humidity
    00:00 -1°C° 0.2 mm 4 mps 752 mmHg 91%
    01:00 -1°C° 0.2 mm 4 mps 752 mmHg 92%
    02:00 -1°C° 0.2 mm 4 mps 752 mmHg 92%
    03:00 -1°C° 0 mm 4 mps 752 mmHg 93%
    04:00 -1°C° 0 mm 4 mps 752 mmHg 93%
    05:00 0°C° 0 mm 4 mps 752 mmHg 94%
    06:00 0°C° 0 mm 4 mps 752 mmHg 94%
    07:00 -1°C° 0 mm 4 mps 753 mmHg 95%
    08:00 -1°C° 0 mm 4 mps 753 mmHg 95%
    09:00 0°C° 0 mm 4 mps 753 mmHg 95%
    10:00 0°C° 0 mm 4 mps 753 mmHg 96%
    11:00 0°C° 0 mm 4 mps 754 mmHg 96%
    12:00 +1°C° 0 mm 3 mps 754 mmHg 96%
    13:00 +1°C° 0 mm 3 mps 754 mmHg 97%
    14:00 +1°C° 0 mm 3 mps 754 mmHg 97%
    15:00 +2°C° 0 mm 2 mps 754 mmHg 96%
    16:00 +1°C° 0 mm 2 mps 754 mmHg 95%
    17:00 +1°C° 0 mm 2 mps 754 mmHg 94%
    18:00 +1°C° 0 mm 2 mps 753 mmHg 95%
    19:00 +1°C° 0 mm 2 mps 753 mmHg 95%
    20:00 +1°C° 0 mm 2 mps 753 mmHg 95%
    21:00 +1°C° 0 mm 2 mps 752 mmHg 95%
    22:00 +1°C° 0 mm 2 mps 752 mmHg 95%
    23:00 +1°C° 0 mm 2 mps 751 mmHg 95%

    25 February, Monday

    Time Temperature Precipitation Wind Pressure Humidity
    00:00 0°C° 0.3 mm 3 mps 751 mmHg 95%
    01:00 0°C° 0.3 mm 3 mps 750 mmHg 95%
    02:00 0°C° 0.3 mm 4 mps 750 mmHg 94%
    03:00 0°C° 0.2 mm 4 mps 749 mmHg 94%
    04:00 0°C° 0.2 mm 5 mps 749 mmHg 93%
    05:00 0°C° 0.2 mm 5 mps 749 mmHg 92%
    06:00 0°C° 0.1 mm 5 mps 749 mmHg 91%
    07:00 -1°C° 0.1 mm 5 mps 749 mmHg 89%
    08:00 -2°C° 0.1 mm 6 mps 749 mmHg 87%
    09:00 -2°C° 0 mm 6 mps 749 mmHg 87%
    10:00 -2°C° 0 mm 6 mps 749 mmHg 87%
    11:00 -1°C° 0 mm 5 mps 748 mmHg 87%
    12:00 -2°C° 0 mm 6 mps 748 mmHg 86%
    13:00 -2°C° 0 mm 6 mps 748 mmHg 86%
    14:00 -2°C° 0 mm 6 mps 747 mmHg 85%
    15:00 -2°C° 0.1 mm 6 mps 747 mmHg 84%
    16:00 -2°C° 0.1 mm 6 mps 746 mmHg 84%
    17:00 -1°C° 0.1 mm 5 mps 746 mmHg 83%
    18:00 -2°C° 0.1 mm 6 mps 746 mmHg 83%
    19:00 -2°C° 0.1 mm 6 mps 745 mmHg 83%
    20:00 -2°C° 0.1 mm 6 mps 745 mmHg 83%
    21:00 -2°C° 0.1 mm 6 mps 745 mmHg 83%
    22:00 -2°C° 0.1 mm 6 mps 745 mmHg 82%
    23:00 -2°C° 0.1 mm 6 mps 745 mmHg 82%

    26 February, Tuesday

    Time Temperature Precipitation Wind Pressure Humidity
    00:00 -2°C° 0 mm 5 mps 745 mmHg 84%
    01:00 -2°C° 0 mm 5 mps 745 mmHg 85%
    02:00 -2°C° 0 mm 5 mps 745 mmHg 87%
    03:00 -2°C° 0 mm 4 mps 745 mmHg 88%
    04:00 -3°C° 0 mm 4 mps 744 mmHg 89%
    05:00 -2°C° 0 mm 3 mps 744 mmHg 90%
    06:00 -2°C° 0 mm 3 mps 743 mmHg 91%
    07:00 -2°C° 0 mm 2 mps 743 mmHg 92%
    08:00 -2°C° 0 mm 2 mps 742 mmHg 92%
    09:00 -2°C° 0 mm 2 mps 741 mmHg 92%
    10:00 -2°C° 0 mm 2 mps 741 mmHg 91%
    11:00 +1°C° 0 mm 1 mps 740 mmHg 90%
    12:00 +1°C° 0.1 mm 1 mps 740 mmHg 90%
    13:00 +1°C° 0.1 mm 1 mps 739 mmHg 91%
    14:00 +1°C° 0.1 mm 1 mps 739 mmHg 91%
    15:00 +1°C° 0 mm 1 mps 739 mmHg 92%
    16:00 0°C° 0 mm 1 mps 739 mmHg 93%
    17:00 0°C° 0 mm 1 mps 740 mmHg 94%
    18:00 -2°C° 0 mm 2 mps 740 mmHg 94%
    19:00 -2°C° 0 mm 2 mps 741 mmHg 93%
    20:00 -2°C° 0 mm 2 mps 742 mmHg 93%
    21:00 -2°C° 0 mm 2 mps 742 mmHg 93%
    22:00 -2°C° 0 mm 2 mps 743 mmHg 93%
    23:00 -2°C° 0 mm 3 mps 744 mmHg 92%

    27 February, Wednesday

    Time Temperature Precipitation Wind Pressure Humidity
    00:00 -2°C° 0 mm 3 mps 744 mmHg 92%
    01:00 -2°C° 0 mm 3 mps 745 mmHg 92%
    02:00 -4°C° 0 mm 3 mps 746 mmHg 92%
    03:00 -4°C° 0 mm 3 mps 746 mmHg 92%
    04:00 -4°C° 0 mm 3 mps 746 mmHg 93%
    05:00 -4°C° 0 mm 3 mps 747 mmHg 93%
    06:00 -4°C° 0 mm 3 mps 747 mmHg 91%
    07:00 -4°C° 0 mm 4 mps 748 mmHg 89%
    08:00 -5°C° 0 mm 4 mps 748 mmHg 88%
    09:00 -4°C° 0 mm 4 mps 749 mmHg 86%
    10:00 -4°C° 0 mm 4 mps 749 mmHg 84%
    11:00 -4°C° 0 mm 3 mps 749 mmHg 81%
    12:00 -2°C° 0 mm 3 mps 748 mmHg 81%
    13:00 -2°C° 0 mm 3 mps 748 mmHg 80%
    14:00 -2°C° 0 mm 3 mps 748 mmHg 80%
    15:00 -2°C° 0 mm 3 mps 747 mmHg 83%
    16:00 -3°C° 0 mm 2 mps 747 mmHg 87%
    17:00 -4°C° 0 mm 2 mps 746 mmHg 90%
    18:00 -5°C° 0 mm 3 mps 745 mmHg 90%
    19:00 -5°C° 0 mm 3 mps 745 mmHg 91%
    20:00 -5°C° 0 mm 3 mps 744 mmHg 91%
    21:00 -4°C° 0 mm 3 mps 743 mmHg 91%
    22:00 -4°C° 0 mm 4 mps 741 mmHg 90%
    23:00 -4°C° 0 mm 4 mps 740 mmHg 90%
    Show more